Location: Centerville
(32.8776°N, 96.6203°W)
Time: 16:25:01
(UTC+00:00)

Cosmos 1092 Rocket - Pass Details

Date: 17 June 2021
Orbit: 955 x 994 km, 82.9° (Epoch: 26 July)

Event Time Altitude Azimuth Distance (km) Brightness Sun altitude
Exits shadow 08:38:57 61° 234° (SW) 1,078 3.9 -25.6°
Maximum altitude 08:39:46 68° 277° (W) 1,026 3.9 -25.5°
Drops below altitude 10° 08:45:53 10° 0° (N) 2,688 7.0 -24.8°
Sets 08:48:24 0° 3° (N) 3,638 7.9 -24.5°
